Location: Ashtead
(51.3000°N, 0.3000°W)
Time: 21:22:33
(UTC+00:00)

Lacrosse 4 Rocket - Pass Details

Date: 26 September 2023
Orbit: 528 x 604 km, 68.0° (Epoch: 10 December)

Event Time Altitude Azimuth Distance (km) Brightness Sun altitude
Exits shadow 02:36:33 36° 63° (ENE) 925 2.9 -29.2°
Drops below altitude 10° 02:39:18 10° 43° (NE) 1,901 5.0 -28.8°
Enters shadow 03:37:40 -65° 220° (SW) 12,153 8.1 -21.3°
